NOAA 16 DEB, 41349

Orbit data source: Space-Track

NOAA 16 DEB, 41349 is space debris in SSO originally from a launch on Thu, 21 Sep 2000 UTC launched from the Air Force Western Test Range (AFWTR). Debris objects in space refer to the collection of defunct objects orbiting the Earth. Examples of debris include non-operational satellites, rocket bodies, and fragments generated from explosions, collisions, or faulty payload assembly.

Loading next visibility...
Identifier
41349, 2000-055HS
Orbit
SSO
Country
Flag of USUS
Related business
Manufacturer
Unknown
Mission
Spacecraft
Bus & Motor
Unknown
Mass
Unknown
Launch date (UTC)
2000-09-21 (26 years ago)
Launch vehicle
Unknown
Launch site
Air Force Western Test Range (AFWTR)
Object type
Payload
Rocket body
Debris
Shape & HBR
Unknown shape, 0.1 m
Radar Cross Section
Medium (>0.1 m² and <1 m²)

Expand to show TLE details & history
Last TLE update: 2 days ago

TLE from 2 days ago
0 NOAA 16 DEB
1 41349U 00055HS  26171.42570316  .00005195  00000-0  12422-2 0  9999
2 41349  98.9684  23.1284 0030892  87.2840 273.1889 14.53777566543920
Epoch: 2026-06-20T10:13Z
TLE epoch observation values (Epoch: 2026-06-20T10:13:00.753Z)
Latitude
-0.00006°
Longitude
-38.76523°
Altitude
715.138 km
Speed
7.499 km/s
True Right ascension
01h 32m 30s
True Declination
0° 00' 00"
Sunlit
Object was in daylight at epoch
Visualization orbit readout
Latitude
Unknown
Longitude
Unknown
Altitude
Unknown
Speed
Unknown
Apparent Right ascension
Unknown
Apparent Declination
Unknown
Sunlit
N/A
Visualization observer readout
Local Sidereal Time
21:35:07
Azimuth
Unknown
Elevation
Unknown
Doppler factor
Unknown
Orbital elements
Apogee altitude
732.362 km
Perigee altitude
688.566 km
Semi-major axis
7,088.601 km
Eccentricity
0.00309
Inclination
98.9684°
RAAN
23.1284°
Arg. of periapsis
87.284°
True anomaly
272.83538°
Mean anomaly
273.1889°
Eccentric anomaly
273.01215°
Mean motion
3.63666 °/min
Orbital period
98.99 mins
BSTAR
0.0012422
Loading maneuver chart data...
Computing Atmospheric mass density...
Loading historical data...
Loading historical data...
Loading historical data...
Loading historical data...
Loading historical data...
Loading historical data...
Loading historical data...

Documentation

Showing up to 5 results
|